Location: *
(51.2167°N, 10.0667°E)
Time: 07:21:25
(UTC+00:00)

Cosmos 1140 Rocket - Pass Details

Date: 12 December 2019
Orbit: 744 x 768 km, 74.1° (Epoch: 28 January)

Event Time Altitude Azimuth Distance (km) Brightness Sun altitude
Rises 18:04:38 0° 206° (SSW) 3,174 7.1 -25.7°
Reaches altitude 10° 18:06:58 10° 207° (SSW) 2,256 6.3 -26.0°
Maximum altitude 18:12:05 81° 294° (WNW) 763 3.4 -26.8°
Enters shadow 18:12:18 78° 333° (NNW) 769 3.4 -26.9°
